User: anonymous   Login
Location: Bathurst
(33.4193°S, 149.5775°E)
Time: 20:47:19
(UTC+11:00)
Language:

ISS - Orbit

View from above orbital plane
View from above orbital plane
View from above satellite
View from above satellite

Ground track
Ground track

The orbit data is extracted from the following two-line orbital elements,

1 25544U 98067A   21059.04994213  .00002124  00000-0  46680-4 0  9996
2 25544  51.6462 162.5253 0003108  57.6639 293.8414 15.49019467271678
Epoch (UTC): 28 February 2021 01:11:55
Eccentricity: 0.0003108
inclination: 51.6462°
perigee height: 417 km
apogee height: 422 km
right ascension of ascending node: 162.5253°
argument of perigee: 57.6639°
revolutions per day: 15.49019467
mean anomaly at epoch: 293.8414°
orbit number at epoch: 27167

The dashed part of the orbit path shows where the satellite is in the earth's shadow,  

DLR